Wind_Speed
48 52 48 44 48 51 53 55 56 48 45 52 46 51 47 41 40 36 36 34 36 37 27 29 34 36 38 38 37 36 36 38 39 40 38 38 36 40 39 38 38 38 41 43
50 54 49 52 52 53 53 55 54 53 49 51 51 51 48 48 42 38 35 30 33 33 32 35 34 35 37 38 36 36 34 35 38 41 43 45 43 41 41 39 40 42 42 44
52 50 46 49 49 49 49 52 51 55 50 51 54 57 54 48 45 37 41 42 41 38 37 33 29 28 25 28 31 33 33 31 34 38 43 48 48 47 44 43 46 47 47 45
46 43 45 46 48 46 50 48 52 52 53 56 53 55 53 56 52 50 49 48 44 35 33 36 37 37 32 42 43 40 37 38 36 37 39 41 46 48 50 49 50 50 48 47
51 48 46 51 52 56 57 56 55 58 58 62 61 60 58 58 61 56 53 48 45 47 50 50 44 45 44 43 47 47 45 43 39 39 39 40 41 47 49 51 52 52 52 49
47 47 47 47 49 50 55 57 58 62 64 64 62 62 61 63 63 61 47 23 48 56 54 56 58 56 54 49 47 49 51 50 48 43 43 43 43 44 48 53 56 57 56 54
55 53 54 49 52 50 51 53 58 62 61 63 65 67 68 66 63 63 60 60 57 57 58 61 60 61 58 53 48 50 51 54 58 56 52 48 47 47 48 51 54 55 54 53
63 64 57 58 57 58 59 60 63 64 67 68 64 70 66 66 66 61 65 67 63 63 63 66 65 61 58 59 59 57 54 55 59 62 61 60 55 54 54 54 55 59 59 55
66 70 64 65 66 65 68 66 60 65 66 68 74 76 71 64 67 69 68 67 65 66 66 63 62 62 64 63 59 56 52 46 51 55 57 60 60 56 56 58 61 62 61 59
61 65 70 68 66 65 63 62 64 63 64 68 71 74 75 68 67 68 70 74 75 73 70 69 70 70 69 65 65 55 51 49 51 56 61 66 63 60 59 61 66 67 66 65
67 71 74 70 72 67 67 67 68 69 70 69 67 71 70 67 65 67 69 68 68 68 68 67 67 66 66 64 64 65 57 52 56 58 63 65 64 65 59 56 62 62 59 58
65 67 70 73 71 73 74 71 64 59 55 68 70 65 61 60 63 66 65 64 68 69 68 67 66 66 66 68 69 64 64 60 61 66 65 68 65 58 58 62 63 65 61 61
57 59 67 71 68 68 68 63 59 62 68 72 70 68 64 55 49 50 57 65 67 68 70 68 69 72 73 74 72 74 73 71 69 71 73 71 68 64 63 65 68 68 69 69
66 69 71 72 70 66 68 65 66 69 73 68 61 65 62 60 58 61 59 57 61 66 71 76 79 81 78 79 79 76 76 76 72 76 78 79 74 71 68 65 75 75 69 71
64 67 66 66 68 71 70 69 67 70 67 71 70 67 63 66 68 69 71 73 75 76 80 81 82 78 77 78 77 78 82 80 76 80 84 85 79 83 81 74 77 74 75 76
68 72 72 73 70 72 74 71 72 72 70 73 73 76 75 73 72 75 78 78 75 74 76 75 76 78 82 81 79 84 83 83 82 79 85 86 86 88 88 84 88 84 82 79
73 75 77 81 77 79 83 77 75 75 74 76 78 76 76 77 77 79 79 81 81 81 81 84 86 89 87 82 85 89 89 84 88 86 87 92 95 96 99 101 98 88 78 76
77 78 81 85 83 88 86 82 81 81 81 81 82 83 83 84 84 83 83 84 84 85 86 86 87 87 87 87 88 90 97 98 93 91 90 91 92 91 91 97 84 83 82 80
78 78 81 80 83 86 86 80 77 78 80 79 79 81 81 82 82 79 82 84 84 85 85 86 86 86 85 86 87 89 95 101 104 104 98 97 97 96 88 91 91 84 84 82
74 72 72 76 78 81 81 77 76 76 77 75 76 77 78 80 83 80 82 83 84 84 83 83 83 83 83 85 88 90 90 92 95 99 101 102 102 102 98 88 88 86 86 89
66 67 68 66 67 69 65 65 66 68 70 72 73 74 77 78 78 78 78 79 80 80 81 82 84 86 87 87 88 88 88 89 93 95 96 97 99 101 102 101 95 93 90 93
57 58 59 59 62 63 59 61 63 61 62 65 68 71 73 74 75 76 77 77 79 81 83 85 88 87 86 88 90 88 87 89 90 91 94 96 99 101 99 95 94 94 94 94
54 54 56 56 56 53 55 57 57 60 64 65 67 67 69 71 72 74 77 78 79 81 83 84 87 89 88 88 92 94 93 95 95 95 95 95 96 98 100 103 102 99 99 99
49 46 51 53 48 51 53 55 57 59 61 61 62 63 66 69 71 73 74 75 77 79 80 83 84 85 85 86 88 90 90 91 93 93 94 95 98 98 99 100 100 102 105 104
44 45 47 52 51 52 52 54 55 57 58 60 62 62 62 64 66 68 70 71 73 76 79 80 80 81 81 81 81 81 81 81 80 81 81 83 87 91 94 97 97 97 97 101
42 48 53 55 52 53 57 54 56 59 60 58 57 57 59 60 62 64 66 69 72 73 73 73 74 76 75 74 71 70 69 69 70 70 70 72 75 78 82 86 89 90 91 90
Wind_Direction
280 285 289 287 283 285 287 288 288 291 290 284 284 283 287 284 284 288 286 290 283 282 274 270 279 282 285 283 284 281 278 273 270 273 274 272 270 267 267 264 262 264 266 266
280 281 286 281 281 283 283 283 287 286 286 284 286 282 281 286 293 294 291 283 284 278 278 280 276 273 277 282 284 284 280 279 276 274 271 270 269 267 265 264 263 266 266 263
275 281 282 283 280 278 277 278 279 280 280 278 283 285 286 289 290 290 285 282 280 285 288 285 284 277 275 277 281 282 282 280 277 273 273 273 270 269 263 261 262 265 265 266
277 279 280 279 278 276 276 278 277 278 278 279 279 281 285 288 290 289 286 290 291 283 272 271 276 273 279 290 290 285 278 275 271 273 274 274 275 272 268 263 258 262 264 265
284 285 284 280 279 279 280 277 276 276 274 277 278 279 283 286 290 291 294 299 301 295 290 281 275 272 274 277 279 281 282 279 273 271 270 272 271 273 270 265 263 264 265 266
282 284 284 284 282 281 281 279 277 274 272 271 274 277 277 280 283 288 298 293 289 286 288 287 287 286 286 282 277 278 282 277 272 265 263 263 266 265 267 268 267 265 263 263
280 280 279 280 281 283 283 282 282 280 278 277 275 271 273 275 280 284 286 282 280 283 286 284 287 290 291 290 285 281 275 277 274 270 264 254 252 254 257 261 264 264 264 264
280 276 279 281 281 281 280 281 280 286 284 280 275 271 271 275 280 284 279 279 282 284 284 284 285 285 286 286 286 280 275 270 264 265 272 270 262 254 252 251 252 257 261 258
281 279 283 283 284 286 285 285 290 285 282 281 279 279 274 275 275 274 275 275 277 279 279 281 280 280 280 280 280 280 276 264 257 253 255 259 258 255 251 251 253 253 253 254
286 282 279 280 284 283 287 288 286 284 283 284 285 285 280 274 270 269 269 271 272 272 274 275 277 277 275 275 277 272 266 263 254 255 254 252 248 251 255 260 263 255 252 251
280 279 283 283 284 285 283 282 280 282 282 283 284 287 287 282 278 272 271 270 269 269 268 269 270 270 268 265 266 265 257 254 253 251 255 254 251 252 254 255 254 252 248 248
280 282 281 282 282 283 284 284 282 279 269 277 283 281 281 281 282 282 275 272 273 274 269 265 267 269 266 264 261 259 257 256 252 249 250 250 252 255 255 252 250 252 249 252
277 269 272 279 280 281 277 279 276 274 276 278 277 280 284 281 274 264 264 274 275 272 266 265 270 274 271 267 265 264 264 260 257 252 251 247 246 249 252 251 251 249 251 253
275 274 275 277 279 278 275 274 274 277 278 279 275 281 280 273 269 264 258 255 259 259 263 267 271 273 272 272 271 269 267 265 262 251 248 249 248 251 250 250 255 249 248 251
276 275 275 274 276 276 276 275 276 275 279 279 282 279 279 277 275 272 268 268 269 268 267 268 269 270 268 269 268 268 267 266 263 252 247 246 247 247 247 249 249 251 254 254
273 274 274 273 274 274 273 273 276 277 277 277 278 279 280 279 275 273 274 275 274 270 268 264 263 267 271 271 267 266 263 264 263 260 258 250 250 251 252 251 251 260 265 267
275 273 273 273 273 272 269 274 273 274 276 277 277 278 278 277 276 276 276 276 276 274 272 270 269 271 273 270 264 261 261 266 262 261 263 262 259 259 258 257 260 264 266 269
273 273 271 273 272 271 275 274 273 275 275 275 276 277 278 278 278 279 280 280 280 279 279 279 277 274 272 271 268 264 263 265 264 263 263 265 262 261 259 260 262 262 261 262
272 271 274 275 274 274 273 277 277 277 277 278 279 279 279 280 280 280 281 281 281 281 281 281 281 280 279 277 273 268 263 262 263 263 263 264 264 263 259 257 257 261 261 263
274 274 274 275 276 277 277 279 279 280 278 278 278 278 279 279 279 279 280 282 283 282 282 280 279 278 278 277 277 275 273 269 266 262 262 259 260 261 259 260 258 260 263 264
275 276 278 280 281 281 283 284 283 280 282 280 281 280 281 282 283 284 283 283 282 282 282 281 281 280 281 279 278 276 274 272 271 269 266 263 261 259 261 261 260 260 258 260
280 280 280 279 279 282 284 285 283 282 279 281 283 284 284 284 285 285 285 284 284 283 283 283 283 283 282 281 278 276 274 272 271 269 267 266 264 263 260 257 257 257 260 256
281 280 281 281 282 284 283 278 277 280 280 281 282 283 284 285 285 285 285 286 286 286 285 285 284 284 284 283 282 280 277 274 271 268 266 265 264 264 262 262 258 254 255 259
280 283 282 281 283 281 277 279 281 282 284 285 286 286 285 285 285 286 287 289 289 290 291 291 290 288 287 286 285 284 282 279 277 274 270 266 263 262 262 262 261 259 255 258
286 286 285 279 284 281 281 282 281 281 284 285 285 285 286 288 290 291 292 293 294 294 294 294 294 292 291 289 289 288 287 284 281 278 275 271 267 263 260 259 260 259 258 257
289 287 283 284 285 286 284 285 285 285 285 285 286 288 290 292 292 294 296 297 297 297 297 296 296 295 296 295 294 291 289 287 284 280 277 273 269 265 262 258 256 257 257 256
Height
5805 5802 5805 5804 5799 5796 5793 5790 5787 5793 5794 5785 5792 5784 5787 5792 5792 5795 5794 5792 5788 5786 5786 5781 5779 5778 5776 5776 5777 5778 5780 5780 5780 5780 5779 5778 5780 5778 5779 5780 5780 5780 5780 5780
5798 5791 5796 5791 5790 5789 5786 5780 5781 5779 5780 5776 5775 5772 5776 5778 5785 5783 5784 5780 5776 5775 5777 5774 5770 5768 5767 5767 5768 5769 5769 5770 5771 5769 5770 5768 5768 5768 5768 5769 5770 5770 5769 5767
5785 5785 5782 5781 5778 5777 5774 5771 5771 5766 5768 5768 5763 5760 5763 5771 5773 5774 5770 5767 5767 5768 5768 5768 5765 5762 5760 5759 5759 5759 5759 5758 5759 5759 5757 5757 5758 5758 5757 5757 5757 5756 5756 5756
5772 5775 5773 5770 5768 5765 5762 5764 5761 5757 5755 5752 5754 5748 5755 5756 5758 5758 5756 5752 5752 5753 5753 5754 5754 5755 5754 5750 5748 5747 5747 5746 5744 5745 5746 5747 5747 5747 5747 5745 5742 5742 5743 5745
5760 5759 5759 5759 5759 5755 5755 5751 5750 5749 5746 5745 5741 5742 5745 5745 5742 5740 5737 5737 5740 5740 5738 5737 5739 5738 5741 5741 5739 5735 5734 5734 5733 5732 5733 5734 5735 5736 5736 5734 5733 5732 5732 5732
5746 5745 5743 5744 5742 5741 5740 5738 5734 5732 5733 5732 5736 5734 5737 5734 5731 5729 5725 5728 5725 5717 5719 5722 5723 5721 5723 5725 5727 5727 5726 5722 5721 5718 5716 5718 5720 5720 5722 5723 5723 5721 5718 5719
5731 5732 5731 5730 5727 5728 5725 5723 5718 5715 5715 5721 5721 5723 5729 5726 5725 5719 5717 5710 5703 5703 5704 5705 5704 5704 5704 5706 5707 5709 5711 5710 5708 5706 5704 5699 5700 5702 5703 5706 5708 5706 5706 5706
5713 5718 5719 5718 5714 5713 5710 5709 5707 5697 5699 5700 5701 5700 5720 5719 5711 5706 5697 5694 5692 5689 5687 5686 5689 5689 5687 5689 5690 5692 5692 5693 5693 5692 5691 5690 5687 5685 5686 5687 5687 5689 5691 5690
5695 5697 5698 5697 5696 5697 5693 5691 5693 5680 5677 5673 5682 5683 5695 5709 5695 5687 5684 5680 5679 5675 5674 5674 5673 5675 5674 5670 5672 5672 5673 5673 5674 5673 5674 5674 5674 5672 5671 5671 5673 5671 5670 5673
5680 5673 5683 5679 5681 5681 5676 5676 5669 5667 5656 5652 5650 5657 5664 5683 5673 5670 5668 5665 5663 5662 5661 5659 5657 5658 5658 5656 5652 5653 5655 5656 5657 5658 5658 5655 5653 5655 5655 5655 5655 5655 5654 5655
5662 5655 5666 5661 5663 5666 5661 5655 5653 5650 5646 5635 5629 5629 5641 5646 5649 5649 5648 5646 5643 5642 5641 5640 5638 5638 5638 5637 5636 5635 5635 5637 5637 5639 5639 5639 5638 5638 5639 5637 5640 5640 5640 5640
5650 5637 5632 5645 5650 5642 5639 5635 5634 5629 5630 5624 5616 5610 5617 5621 5623 5625 5628 5628 5623 5619 5620 5618 5618 5618 5617 5618 5617 5618 5616 5616 5617 5617 5618 5618 5618 5618 5620 5621 5621 5623 5625 5625
5632 5625 5618 5618 5630 5629 5621 5620 5617 5615 5609 5605 5600 5597 5600 5599 5602 5605 5606 5605 5604 5602 5599 5598 5596 5595 5596 5595 5596 5596 5596 5597 5597 5599 5598 5597 5596 5596 5598 5598 5600 5603 5604 5606
5613 5610 5606 5602 5606 5609 5599 5604 5602 5598 5588 5585 5585 5584 5585 5586 5588 5586 5584 5585 5586 5584 5580 5577 5575 5575 5573 5572 5572 5571 5573 5573 5573 5572 5575 5577 5576 5576 5575 5576 5579 5579 5580 5582
5595 5588 5590 5587 5587 5584 5581 5581 5585 5579 5577 5564 5567 5563 5568 5565 5565 5564 5564 5563 5563 5563 5560 5558 5556 5552 5551 5549 5546 5545 5544 5546 5548 5550 5549 5551 5551 5551 5551 5551 5553 5555 5557 5558
5580 5570 5568 5566 5570 5563 5556 5561 5563 5562 5558 5550 5547 5543 5545 5543 5541 5539 5537 5537 5537 5538 5537 5535 5533 5530 5529 5526 5524 5521 5519 5518 5518 5521 5523 5523 5524 5525 5526 5526 5529 5530 5531 5532
5559 5554 5549 5540 5547 5539 5531 5549 5544 5540 5541 5533 5527 5526 5520 5517 5517 5515 5514 5511 5511 5511 5512 5512 5510 5506 5504 5501 5499 5497 5495 5493 5492 5492 5495 5497 5500 5502 5502 5500 5501 5504 5505 5508
5535 5535 5527 5516 5520 5505 5519 5524 5522 5520 5518 5514 5506 5500 5496 5492 5492 5494 5490 5487 5486 5483 5482 5481 5480 5479 5477 5474 5470 5469 5466 5463 5463 5464 5464 5464 5466 5469 5470 5471 5471 5475 5479 5482
5516 5512 5500 5495 5494 5490 5495 5499 5500 5494 5494 5489 5483 5476 5474 5469 5470 5477 5466 5464 5463 5460 5458 5454 5451 5450 5449 5444 5438 5436 5435 5431 5430 5430 5433 5434 5433 5435 5439 5441 5442 5445 5449 5453
5495 5490 5483 5477 5472 5468 5475 5477 5476 5472 5467 5467 5459 5456 5453 5447 5448 5455 5445 5442 5438 5433 5431 5427 5424 5422 5422 5418 5410 5406 5404 5401 5396 5399 5400 5403 5402 5403 5406 5409 5412 5415 5417 5424
5473 5469 5462 5459 5453 5451 5458 5456 5455 5449 5449 5440 5436 5436 5432 5427 5426 5426 5424 5420 5414 5410 5405 5399 5396 5395 5394 5388 5380 5378 5375 5372 5368 5367 5367 5368 5368 5369 5371 5376 5382 5384 5391 5398
5455 5452 5449 5447 5442 5439 5444 5438 5435 5429 5425 5422 5419 5416 5411 5407 5405 5402 5399 5396 5391 5387 5383 5376 5367 5365 5363 5355 5347 5347 5346 5340 5338 5336 5335 5334 5334 5336 5339 5342 5349 5353 5356 5367
5437 5436 5432 5432 5428 5430 5426 5419 5416 5410 5405 5408 5402 5402 5394 5388 5387 5381 5377 5373 5367 5360 5354 5347 5341 5336 5334 5326 5315 5310 5311 5304 5302 5302 5302 5301 5301 5302 5304 5306 5316 5319 5328 5333
5421 5424 5418 5414 5420 5413 5407 5405 5400 5396 5392 5391 5386 5382 5377 5370 5366 5361 5357 5351 5344 5338 5328 5320 5313 5307 5304 5298 5288 5277 5273 5268 5264 5264 5266 5267 5268 5271 5272 5275 5281 5286 5296 5304
5413 5410 5407 5398 5400 5393 5393 5388 5386 5384 5379 5374 5368 5363 5357 5352 5349 5341 5338 5331 5323 5316 5308 5298 5288 5278 5273 5266 5259 5250 5241 5234 5230 5227 5229 5229 5229 5232 5236 5240 5245 5249 5260 5267
5403 5395 5387 5384 5387 5375 5375 5375 5370 5366 5360 5355 5351 5347 5342 5336 5331 5326 5321 5312 5303 5295 5286 5277 5267 5255 5248 5241 5233 5222 5214 5205 5200 5198 5197 5195 5194 5195 5197 5203 5211 5215 5223 5231